K4AVM-13 Weather Reports


time (UTC)temp
C
wind
direction
speed
KPH
gust
KPH
rain 1hr
cm
rain 24hr
cm
rain mn
cm
humidity
%
barometer
mb
20260509192348 23 181 4.8 9.7 0.00 0.00 0.00 49 1010.4
20260509191844 23 133 4.8 6.4 0.00 0.00 0.00 48 1010.3
20260509191340 25 158 1.6 1.6 0.00 0.00 0.00 49 1010.5
20260509190836 25 149 4.8 9.7 0.00 0.00 0.00 44 1010.4
20260509190333 25 165 1.6 4.8 0.00 0.00 0.00 47 1010.6
20260509185830 25 154 3.2 6.4 0.00 0.00 0.00 46 1010.5
20260509185327 26 227 3.2 4.8 0.00 0.00 0.00 45 1010.8
20260509184825 25 178 4.8 4.8 0.00 0.00 0.00 45 1011.0
20260509184321 25 181 3.2 4.8 0.00 0.00 0.00 47 1011.1
20260509183817 23 176 1.6 3.2 0.00 0.00 0.00 50 1011.1
20260509183307 24 148 4.8 6.4 0.00 0.00 0.00 47 1011.1
20260509182803 25 133 3.2 4.8 0.00 0.00 0.00 46 1011.2
20260509182300 25 130 1.6 6.4 0.00 0.00 0.00 47 1011.3
20260509181757 23 168 0.0 1.6 0.00 0.00 0.00 49 1011.4
20260509181255 23 183 3.2 9.7 0.00 0.00 0.00 47 1011.4
20260509180752 25 200 4.8 4.8 0.00 0.00 0.00 44 1011.6
20260509180248 25 200 3.2 9.7 0.00 0.00 0.00 45 1011.4
20260509175744 25 115 3.2 4.8 0.00 0.00 0.00 46 1011.6
20260509175241 25 148 3.2 6.4 0.00 0.00 0.00 45 1011.5
20260509174737 25 165 3.2 4.8 0.00 0.00 0.00 47 1011.7
20260509174233 25 180 1.6 4.8 0.00 0.00 0.00 47 1011.7
20260509173729 25 179 1.6 12.9 0.00 0.00 0.00 47 1011.7
20260509173225 25 62 4.8 11.3 0.00 0.00 0.00 47 1011.5
20260509172721 23 73 3.2 11.3 0.00 0.00 0.00 48 1011.7
20260509172217 25 138 3.2 11.3 0.00 0.00 0.00 48 1011.8
20260509171713 25 149 1.6 6.4 0.00 0.00 0.00 51 1012.0
20260509171210 23 192 1.6 4.8 0.00 0.00 0.00 51 1012.0
20260509170707 23 214 3.2 9.7 0.00 0.00 0.00 51 1012.0
20260509170202 23 244 3.2 6.4 0.00 0.00 0.00 51 1012.1
20260509165701 23 178 4.8 9.7 0.00 0.00 0.00 51 1012.2
20260509165156 23 201 3.2 4.8 0.00 0.00 0.00 52 1012.5
20260509164653 23 158 0.0 4.8 0.00 0.00 0.00 52 1012.6
20260509164148 22 165 1.6 9.7 0.00 0.00 0.00 54 1012.7
20260509163646 23 201 1.6 11.3 0.00 0.00 0.00 50 1012.5
20260509163142 23 108 3.2 4.8 0.00 0.00 0.00 51 1012.4
20260509162639 23 176 3.2 11.3 0.00 0.00 0.00 51 1012.3
20260509162135 23 189 0.0 6.4 0.00 0.00 0.00 49 1012.3
20260509161631 23 182 3.2 11.3 0.00 0.00 0.00 51 1012.4
20260509161126 22 166 3.2 6.4 0.00 0.00 0.00 50 1012.5
20260509160622 23 211 9.7 14.5 0.00 0.00 0.00 49 1012.5
20260509160118 23 157 3.2 11.3 0.00 0.00 0.00 51 1012.6
20260509155614 23 133 3.2 6.4 0.00 0.00 0.00 50 1012.5
20260509155111 23 206 3.2 9.7 0.00 0.00 0.00 48 1012.9
20260509154606 22 154 1.6 6.4 0.00 0.00 0.00 50 1013.1
20260509154104 22 194 8.0 12.9 0.00 0.00 0.00 50 1013.0
20260509153601 22 188 3.2 11.3 0.00 0.00 0.00 51 1013.1
20260509153058 22 142 1.6 9.7 0.00 0.00 0.00 53 1013.1
20260509152554 22 159 3.2 9.7 0.00 0.00 0.00 54 1013.0
20260509152051 22 133 4.8 6.4 0.00 0.00 0.00 55 1013.2
20260509151547 21 156 6.4 11.3 0.00 0.00 0.00 56 1013.4
20260509151045 22 179 3.2 11.3 0.00 0.00 0.00 56 1013.3
20260509150542 21 187 3.2 11.3 0.00 0.00 0.00 57 1013.3
20260509150035 22 170 1.6 9.7 0.00 0.00 0.00 58 1013.5
20260509145530 21 216 3.2 3.2 0.00 0.00 0.00 58 1013.6
20260509145026 21 145 1.6 12.9 0.00 0.00 0.00 58 1013.6
20260509144523 21 193 9.7 16.1 0.00 0.00 0.00 58 1013.8
20260509144020 21 160 1.6 9.7 0.00 0.00 0.00 60 1013.9
20260509143517 21 199 3.2 4.8 0.00 0.00 0.00 62 1014.0
20260509143015 20 149 0.0 4.8 0.00 0.00 0.00 63 1014.0
20260509142510 20 175 3.2 4.8 0.00 0.00 0.00 62 1014.1
20260509142006 20 163 0.0 4.8 0.00 0.00 0.00 65 1014.4
20260509141503 20 218 3.2 6.4 0.00 0.00 0.00 65 1014.1
20260509140959 20 147 1.6 3.2 0.00 0.00 0.00 67 1014.2
20260509140455 19 187 1.6 6.4 0.00 0.00 0.00 69 1014.0
20260509135954 18 187 4.8 6.4 0.00 0.00 0.00 70 1014.3
20260509135451 18 137 3.2 4.8 0.00 0.00 0.00 71 1014.1
20260509134948 18 169 0.0 1.6 0.00 0.00 0.00 73 1014.5
20260509134446 17 143 0.0 1.6 0.00 0.00 0.00 74 1014.4
20260509133943 17 127 1.6 3.2 0.00 0.00 0.00 74 1014.7
20260509133439 17 174 1.6 9.7 0.00 0.00 0.00 73 1014.7
20260509132938 17 191 1.6 11.3 0.00 0.00 0.00 74 1014.8
20260509132436 17 161 1.6 3.2 0.00 0.00 0.00 74 1014.7
20260509131932 17 144 1.6 3.2 0.00 0.00 0.00 74 1014.8
20260509131430 18 128 3.2 4.8 0.00 0.00 0.00 73 1014.7
20260509130926 17 149 0.0 3.2 0.00 0.00 0.00 74 1014.5
20260509130421 17 151 1.6 4.8 0.00 0.00 0.00 74 1014.6
20260509125919 17 176 1.6 3.2 0.00 0.00 0.00 75 1014.5
20260509125415 17 117 1.6 1.6 0.00 0.00 0.00 76 1014.4
20260509124911 16 153 0.0 0.0 0.00 0.00 0.00 77 1014.3
20260509124409 16 241 3.2 4.8 0.00 0.00 0.00 77 1014.5
20260509123906 16 137 1.6 4.8 0.00 0.00 0.00 78 1014.6
20260509123403 16 145 1.6 1.6 0.00 0.00 0.00 78 1014.7
20260509122859 16 174 1.6 3.2 0.00 0.00 0.00 78 1014.6
20260509122356 16 141 1.6 3.2 0.00 0.00 0.00 80 1014.6
20260509121852 16 186 0.0 1.6 0.00 0.00 0.00 81 1014.6
20260509121350 15 140 0.0 1.6 0.00 0.00 0.00 83 1015.0
20260509120848 15 168 0.0 3.2 0.00 0.00 0.00 84 1014.8
20260509120345 14 183 3.2 4.8 0.00 0.00 0.00 84 1014.9
20260509115843 14 158 0.0 4.8 0.00 0.00 0.00 85 1014.7
20260509115340 13 175 0.0 3.2 0.00 0.00 0.00 85 1014.8
20260509114838 13 192 3.2 3.2 0.00 0.00 0.00 87 1014.8
20260509114336 13 172 0.0 0.0 0.00 0.00 0.00 87 1014.6
20260509113835 13 183 0.0 3.2 0.00 0.00 0.00 88 1014.6
20260509113332 13 156 0.0 0.0 0.00 0.00 0.00 88 1014.6
20260509112829 12 150 0.0 3.2 0.00 0.00 0.00 89 1014.6
20260509112326 12 154 0.0 0.0 0.00 0.00 0.00 90 1014.4
20260509111823 12 165 1.6 1.6 0.00 0.00 0.00 90 1014.7
20260509111320 12 152 0.0 0.0 0.00 0.00 0.00 90 1014.7
20260509110818 12 155 0.0 0.0 0.00 0.00 0.00 90 1014.6
20260509110313 12 151 0.0 0.0 0.00 0.00 0.00 90 1014.4
20260509105812 12 137 1.6 1.6 0.00 0.00 0.00 91 1014.6
20260509105310 11 145 0.0 4.8 0.00 0.00 0.00 91 1014.6
20260509104806 11 159 1.6 3.2 0.00 0.00 0.00 91 1014.6
20260509104303 11 152 0.0 1.6 0.00 0.00 0.00 92 1014.6
20260509103801 11 155 0.0 0.0 0.00 0.00 0.00 93 1014.5
20260509103258 11 154 0.0 0.0 0.00 0.00 0.00 93 1014.4
20260509102756 10 151 0.0 0.0 0.00 0.00 0.00 94 1014.5
20260509102253 10 148 0.0 0.0 0.00 0.00 0.00 94 1014.3
20260509101749 10 151 0.0 0.0 0.00 0.00 0.00 93 1014.4
20260509101245 10 150 0.0 0.0 0.00 0.00 0.00 93 1014.3
20260509100743 10 136 0.0 0.0 0.00 0.00 0.00 93 1014.3
20260509100240 10 136 0.0 0.0 0.00 0.00 0.00 93 1014.6
20260509095736 10 141 0.0 0.0 0.00 0.00 0.00 92 1014.4
20260509095234 10 160 1.6 1.6 0.00 0.00 0.00 92 1014.4
20260509094731 10 136 0.0 0.0 0.00 0.00 0.00 91 1014.4
20260509094228 10 134 0.0 0.0 0.00 0.00 0.00 91 1014.4
20260509093726 11 127 0.0 0.0 0.00 0.00 0.00 91 1014.5
20260509093223 11 136 0.0 0.0 0.00 0.00 0.00 90 1014.4
20260509092721 11 144 0.0 0.0 0.00 0.00 0.00 89 1014.6
20260509092219 11 136 0.0 0.0 0.00 0.00 0.00 89 1014.9
20260509091717 11 151 0.0 0.0 0.00 0.00 0.00 88 1014.6
20260509091212 11 135 0.0 1.6 0.00 0.00 0.00 87 1014.7
20260509090710 11 150 0.0 0.0 0.00 0.00 0.00 87 1014.5
20260509090207 11 173 0.0 0.0 0.00 0.00 0.00 87 1014.6
20260509085705 11 138 0.0 0.0 0.00 0.00 0.00 87 1014.6
20260509085201 11 136 0.0 0.0 0.00 0.00 0.00 87 1014.5
20260509084658 11 139 0.0 1.6 0.00 0.00 0.00 87 1014.4
20260509084155 11 136 0.0 1.6 0.00 0.00 0.00 87 1014.4
20260509083653 11 141 0.0 0.0 0.00 0.00 0.00 87 1014.3
20260509083149 11 141 0.0 0.0 0.00 0.00 0.00 86 1014.5
20260509082646 11 150 0.0 0.0 0.00 0.00 0.00 86 1014.4
20260509082143 11 127 0.0 0.0 0.00 0.00 0.00 86 1014.3
20260509081640 11 152 0.0 0.0 0.00 0.00 0.00 86 1014.2
20260509081137 11 133 0.0 0.0 0.00 0.00 0.00 85 1014.2
20260509080635 11 134 0.0 0.0 0.00 0.00 0.00 84 1014.4
20260509080133 11 131 0.0 0.0 0.00 0.00 0.00 83 1014.3
20260509075631 11 141 0.0 0.0 0.00 0.00 0.00 82 1014.5
20260509075128 12 134 0.0 0.0 0.00 0.00 0.00 81 1014.5
20260509074625 12 136 0.0 0.0 0.00 0.00 0.00 80 1014.7
20260509074121 12 136 0.0 0.0 0.00 0.00 0.00 79 1014.6
20260509073618 12 150 0.0 0.0 0.00 0.00 0.00 79 1014.8
20260509073114 12 154 0.0 0.0 0.00 0.00 0.00 79 1014.8
20260509072611 13 141 0.0 0.0 0.00 0.00 0.00 78 1014.6
20260509072108 13 149 0.0 0.0 0.00 0.00 0.00 76 1014.6
20260509071604 13 127 0.0 1.6 0.00 0.00 0.00 75 1014.6
20260509071102 13 122 0.0 3.2 0.00 0.00 0.00 75 1014.7
20260509070559 13 131 1.6 4.8 0.00 0.00 0.00 76 1014.3
20260509070055 13 151 0.0 1.6 0.00 0.00 0.00 76 1014.5
20260509065551 12 149 0.0 0.0 0.00 0.00 0.00 77 1014.7
20260509065047 13 196 1.6 1.6 0.00 0.00 0.00 77 1014.7
20260509064545 13 136 0.0 3.2 0.00 0.00 0.00 77 1014.7
20260509064043 13 159 0.0 0.0 0.00 0.00 0.00 76 1015.0
20260509063538 13 171 0.0 1.6 0.00 0.00 0.00 76 1014.9
20260509063036 13 150 1.6 3.2 0.00 0.00 0.00 76 1015.2
20260509062533 13 182 0.0 3.2 0.00 0.00 0.00 76 1015.3
20260509062030 13 195 1.6 3.2 0.00 0.00 0.00 76 1015.5
20260509061527 13 152 0.0 1.6 0.00 0.00 0.00 75 1015.4
20260509061024 13 173 1.6 4.8 0.00 0.00 0.00 74 1015.6
20260509060522 12 164 1.6 1.6 0.00 0.00 0.00 76 1015.7
20260509060017 13 153 0.0 1.6 0.00 0.00 0.00 74 1015.7
20260509055513 12 161 0.0 0.0 0.00 0.00 0.00 74 1015.6
20260509055009 12 141 1.6 3.2 0.00 0.00 0.00 73 1015.6
20260509054506 13 166 0.0 1.6 0.00 0.00 0.00 72 1015.6
20260509054004 12 135 0.0 1.6 0.00 0.00 0.00 73 1015.6
20260509053502 12 141 0.0 1.6 0.00 0.00 0.00 72 1015.6
20260509052959 12 151 0.0 0.0 0.00 0.00 0.00 72 1015.8
20260509052456 12 154 0.0 1.6 0.00 0.00 0.00 71 1015.5
20260509051954 12 144 0.0 0.0 0.00 0.00 0.00 71 1015.4
20260509051452 12 154 0.0 0.0 0.00 0.00 0.00 71 1015.4
20260509050949 12 154 0.0 0.0 0.00 0.00 0.00 71 1015.3
20260509050445 12 151 0.0 1.6 0.00 0.00 0.00 71 1015.6
20260509045942 12 152 0.0 0.0 0.00 0.00 0.00 72 1015.3
20260509045439 11 153 0.0 0.0 0.00 0.00 0.00 72 1015.4
20260509044936 12 149 0.0 0.0 0.00 0.00 0.00 72 1015.3
20260509044434 12 150 0.0 0.0 0.00 0.00 0.00 72 1015.2
20260509043931 11 136 0.0 0.0 0.00 0.00 0.00 73 1015.4
20260509043426 11 149 0.0 0.0 0.00 0.00 0.00 72 1015.2
20260509042922 11 141 0.0 0.0 0.00 0.00 0.00 72 1015.4
20260509042420 11 145 0.0 0.0 0.00 0.00 0.00 72 1015.3
20260509041915 11 141 0.0 0.0 0.00 0.00 0.00 71 1015.4
20260509041413 11 151 0.0 0.0 0.00 0.00 0.00 72 1015.3
20260509040911 11 136 0.0 0.0 0.00 0.00 0.00 71 1015.5
20260509040408 12 136 0.0 0.0 0.00 0.00 0.00 70 1015.5
20260509035905 12 136 0.0 0.0 0.00 0.00 0.00 70 1015.4
20260509035402 12 141 0.0 0.0 0.00 0.00 0.00 69 1015.5
20260509034858 12 141 0.0 0.0 0.00 0.00 0.00 68 1015.5
20260509034356 12 136 0.0 0.0 0.00 0.00 0.00 69 1015.5
20260509033853 12 136 0.0 0.0 0.00 0.00 0.00 67 1015.7
20260509033350 12 145 0.0 0.0 0.00 0.00 0.00 66 1015.7
20260509032846 12 141 0.0 0.0 0.00 0.00 0.00 65 1015.8
20260509032343 13 141 0.0 0.0 0.00 0.00 0.00 64 1015.6
20260509031842 13 136 0.0 0.0 0.00 0.00 0.00 63 1015.8
20260509031333 13 149 0.0 0.0 0.00 0.00 0.00 61 1015.6
20260509030831 13 141 0.0 0.0 0.00 0.00 0.00 60 1015.5
20260509030328 13 163 0.0 0.0 0.00 0.00 0.00 61 1015.5
20260509025825 13 141 0.0 0.0 0.00 0.00 0.00 59 1015.5
20260509025320 13 156 0.0 0.0 0.00 0.00 0.00 59 1015.7
20260509024816 13 145 0.0 0.0 0.00 0.00 0.00 58 1015.6
20260509024312 13 117 0.0 0.0 0.00 0.00 0.00 57 1015.8
20260509023810 14 132 0.0 0.0 0.00 0.00 0.00 55 1015.7
20260509023307 13 136 0.0 1.6 0.00 0.00 0.00 56 1015.7
20260509022803 13 136 0.0 0.0 0.00 0.00 0.00 55 1015.4
20260509022301 13 149 0.0 1.6 0.00 0.00 0.00 54 1015.8
20260509021757 13 155 0.0 1.6 0.00 0.00 0.00 55 1015.7
20260509021255 13 145 0.0 0.0 0.00 0.00 0.00 54 1015.8
20260509020752 13 151 0.0 0.0 0.00 0.00 0.00 54 1016.0
20260509020250 13 152 0.0 0.0 0.00 0.00 0.00 52 1015.6
20260509015747 13 151 0.0 0.0 0.00 0.00 0.00 52 1015.5
20260509015245 14 151 0.0 0.0 0.00 0.00 0.00 51 1015.3
20260509014741 14 141 0.0 0.0 0.00 0.00 0.00 51 1015.5
20260509014239 15 149 0.0 0.0 0.00 0.00 0.00 51 1015.4
20260509013735 15 152 0.0 0.0 0.00 0.00 0.00 50 1015.5
20260509013231 15 153 0.0 0.0 0.00 0.00 0.00 48 1015.3
20260509012728 15 153 0.0 0.0 0.00 0.00 0.00 48 1015.4
20260509012224 15 153 0.0 0.0 0.00 0.00 0.00 48 1015.2
20260509011722 15 151 0.0 0.0 0.00 0.00 0.00 49 1015.1
20260509011220 16 150 0.0 0.0 0.00 0.00 0.00 49 1015.1
20260509010717 15 144 1.6 1.6 0.00 0.00 0.00 49 1015.2
20260509010213 16 150 0.0 0.0 0.00 0.00 0.00 49 1015.1
20260509005711 16 150 0.0 0.0 0.00 0.00 0.00 49 1015.3
20260509005208 16 151 0.0 0.0 0.00 0.00 0.00 49 1015.2
20260509004702 16 150 0.0 0.0 0.00 0.00 0.00 48 1015.2
20260509004200 17 153 0.0 0.0 0.00 0.00 0.00 47 1015.0
20260509003658 17 150 0.0 0.0 0.00 0.00 0.00 44 1015.2
20260509003156 17 150 0.0 0.0 0.00 0.00 0.00 44 1015.0
20260509002653 17 150 0.0 1.6 0.00 0.00 0.00 44 1015.0
20260509002150 18 151 0.0 0.0 0.00 0.00 0.00 44 1014.9
20260509001648 18 242 0.0 1.6 0.00 0.00 0.00 42 1015.0
20260509001143 20 132 0.0 1.6 0.00 0.00 0.00 37 1014.8
20260509000642 20 132 0.0 1.6 0.00 0.00 0.00 37 1014.9
20260509000138 20 132 0.0 1.6 0.00 0.00 0.00 37 1014.8
20260508235636 20 132 0.0 1.6 0.00 0.00 0.00 37 1014.7
20260508235132 20 132 0.0 1.6 0.00 0.00 0.00 37 1014.6
20260508234629 20 132 0.0 1.6 0.00 0.00 0.00 37 1014.4
20260508234126 20 132 0.0 1.6 0.00 0.00 0.00 37 1014.5
20260508233625 20 132 0.0 1.6 0.00 0.00 0.00 37 1014.7
20260508233122 20 153 0.0 1.6 0.00 0.00 0.00 37 1014.6
20260508232619 20 227 1.6 4.8 0.00 0.00 0.00 38 1014.3
20260508232116 20 164 1.6 1.6 0.00 0.00 0.00 35 1014.6
20260508231614 20 164 1.6 1.6 0.00 0.00 0.00 35 1014.5
20260508231110 20 167 3.2 3.2 0.00 0.00 0.00 36 1014.5
20260508230607 20 187 1.6 1.6 0.00 0.00 0.00 37 1014.3
20260508230103 20 167 1.6 1.6 0.00 0.00 0.00 35 1014.4
20260508225601 20 150 4.8 4.8 0.00 0.00 0.00 34 1014.3
20260508225057 20 139 0.0 1.6 0.00 0.00 0.00 36 1014.5
20260508224556 20 162 0.0 3.2 0.00 0.00 0.00 38 1014.4
20260508224052 20 140 0.0 1.6 0.00 0.00 0.00 36 1014.4
20260508223550 20 168 1.6 1.6 0.00 0.00 0.00 37 1014.5
20260508223047 20 168 1.6 1.6 0.00 0.00 0.00 35 1014.4
20260508222545 20 168 1.6 1.6 0.00 0.00 0.00 36 1014.4
20260508222041 21 176 1.6 3.2 0.00 0.00 0.00 36 1014.7
20260508221538 21 167 0.0 3.2 0.00 0.00 0.00 36 1014.6
20260508221033 21 173 0.0 6.4 0.00 0.00 0.00 34 1014.7
20260508220531 21 155 0.0 1.6 0.00 0.00 0.00 33 1014.7
20260508220027 21 147 3.2 9.7 0.00 0.00 0.00 33 1014.7
20260508215524 21 144 3.2 4.8 0.00 0.00 0.00 33 1014.7
20260508215020 21 186 0.0 1.6 0.00 0.00 0.00 34 1014.6
20260508214518 22 153 3.2 12.9 0.00 0.00 0.00 32 1014.7
20260508214014 22 164 1.6 3.2 0.00 0.00 0.00 31 1014.5
20260508213512 23 144 0.0 1.6 0.00 0.00 0.00 30 1014.8
20260508213007 23 204 1.6 3.2 0.00 0.00 0.00 29 1014.8
20260508212504 23 162 1.6 3.2 0.00 0.00 0.00 30 1014.7
20260508212000 22 129 3.2 4.8 0.00 0.00 0.00 31 1014.5
20260508211455 23 163 0.0 3.2 0.00 0.00 0.00 31 1014.5
20260508210953 23 153 1.6 9.7 0.00 0.00 0.00 31 1014.5
20260508210449 23 176 1.6 3.2 0.00 0.00 0.00 30 1014.7
20260508205945 22 157 1.6 4.8 0.00 0.00 0.00 32 1014.6
20260508205443 22 188 1.6 3.2 0.00 0.00 0.00 31 1014.6
20260508204939 22 177 0.0 3.2 0.00 0.00 0.00 31 1014.8
20260508204437 22 137 1.6 4.8 0.00 0.00 0.00 31 1014.9
20260508203931 23 182 3.2 6.4 0.00 0.00 0.00 31 1014.9
20260508203428 23 127 0.0 1.6 0.00 0.00 0.00 30 1014.8
20260508202924 23 187 1.6 9.7 0.00 0.00 0.00 31 1015.0
20260508202422 23 123 1.6 4.8 0.00 0.00 0.00 31 1015.0
20260508201918 22 165 1.6 3.2 0.00 0.00 0.00 32 1015.1
20260508201415 22 150 4.8 6.4 0.00 0.00 0.00 31 1015.1
20260508200912 22 171 1.6 1.6 0.00 0.00 0.00 32 1015.0
20260508200409 22 190 3.2 14.5 0.00 0.00 0.00 31 1015.1
20260508195904 22 143 1.6 3.2 0.00 0.00 0.00 31 1015.2
20260508195401 22 173 3.2 4.8 0.00 0.00 0.00 30 1015.2
20260508194857 22 170 1.6 3.2 0.00 0.00 0.00 31 1015.3
20260508194354 22 170 3.2 4.8 0.00 0.00 0.00 30 1015.5
20260508193852 21 255 3.2 6.4 0.00 0.00 0.00 33 1015.4
20260508193348 22 175 3.2 3.2 0.00 0.00 0.00 32 1015.5
20260508192844 22 163 3.2 3.2 0.00 0.00 0.00 31 1015.4